QPF
0.00 0.01 0.02 0.03 0.04 0.05 0.03 0.02 0.02 0.03 0.02 0.02 0.02 0.03 0.02 0.02 0.01 0.02 0.02 0.03 0.04 0.05 0.07 0.05 0.06 0.08 0.05 0.04 0.03 0.03 0.04 0.04 0.02 0.02 0.02 0.02 0.03 0.03 0.02 0.02 0.02 0.02 0.05
0.01 0.01 0.02 0.03 0.03 0.04 0.03 0.03 0.03 0.02 0.02 0.02 0.03 0.03 0.03 0.02 0.02 0.02 0.02 0.03 0.05 0.06 0.07 0.07 0.08 0.09 0.06 0.04 0.03 0.02 0.03 0.03 0.02 0.01 0.01 0.01 0.01 0.03 0.02 0.01 0.01 0.03 0.04
0.00 0.01 0.03 0.03 0.04 0.04 0.03 0.04 0.03 0.02 0.03 0.03 0.02 0.03 0.03 0.03 0.03 0.02 0.02 0.03 0.04 0.05 0.06 0.07 0.10 0.09 0.06 0.04 0.02 0.01 0.02 0.03 0.03 0.01 0.01 0.01 0.02 0.03 0.03 0.02 0.03 0.03 0.03
0.00 0.01 0.03 0.03 0.03 0.03 0.04 0.05 0.03 0.03 0.03 0.03 0.04 0.04 0.03 0.03 0.02 0.03 0.03 0.02 0.02 0.04 0.05 0.06 0.09 0.07 0.05 0.02 0.01 0.01 0.02 0.03 0.02 0.01 0.02 0.01 0.02 0.05 0.04 0.04 0.03 0.03 0.04
0.01 0.01 0.03 0.03 0.03 0.04 0.04 0.05 0.04 0.05 0.04 0.03 0.04 0.05 0.04 0.04 0.02 0.02 0.02 0.02 0.02 0.02 0.03 0.04 0.08 0.06 0.04 0.03 0.02 0.02 0.02 0.02 0.02 0.01 0.01 0.02 0.04 0.06 0.05 0.03 0.03 0.03 0.04
0.02 0.03 0.04 0.05 0.06 0.06 0.06 0.06 0.06 0.08 0.07 0.05 0.05 0.06 0.06 0.04 0.03 0.03 0.03 0.03 0.02 0.03 0.04 0.04 0.06 0.05 0.04 0.04 0.03 0.03 0.02 0.03 0.02 0.01 0.01 0.02 0.04 0.07 0.05 0.04 0.03 0.03 0.03
0.02 0.03 0.04 0.06 0.08 0.08 0.07 0.06 0.06 0.08 0.07 0.06 0.06 0.08 0.06 0.04 0.03 0.03 0.03 0.03 0.03 0.03 0.04 0.04 0.04 0.04 0.04 0.04 0.03 0.03 0.03 0.03 0.01 0.01 0.01 0.02 0.05 0.07 0.05 0.04 0.03 0.03 0.03
0.03 0.04 0.06 0.07 0.07 0.06 0.07 0.06 0.05 0.06 0.06 0.05 0.06 0.09 0.06 0.03 0.03 0.03 0.02 0.02 0.03 0.03 0.04 0.04 0.04 0.03 0.03 0.03 0.03 0.02 0.03 0.02 0.00 0.00 0.01 0.02 0.04 0.05 0.05 0.03 0.02 0.02 0.02
0.05 0.05 0.04 0.06 0.07 0.09 0.08 0.06 0.05 0.05 0.05 0.05 0.06 0.09 0.08 0.05 0.04 0.03 0.02 0.02 0.02 0.02 0.03 0.04 0.03 0.02 0.03 0.03 0.02 0.01 0.01 0.01 0.00 0.01 0.01 0.02 0.03 0.04 0.05 0.05 0.03 0.02 0.02
0.06 0.06 0.05 0.06 0.07 0.07 0.08 0.07 0.05 0.04 0.04 0.05 0.06 0.07 0.09 0.07 0.05 0.04 0.02 0.02 0.02 0.02 0.02 0.02 0.02 0.03 0.03 0.03 0.02 0.01 0.01 0.00 0.01 0.01 0.01 0.01 0.02 0.03 0.04 0.04 0.03 0.02 0.02
0.06 0.06 0.05 0.06 0.07 0.07 0.06 0.07 0.07 0.04 0.04 0.04 0.05 0.06 0.09 0.07 0.05 0.04 0.03 0.02 0.02 0.03 0.03 0.02 0.02 0.02 0.02 0.02 0.01 0.01 0.01 0.01 0.01 0.01 0.01 0.01 0.02 0.02 0.03 0.03 0.02 0.02 0.02
0.05 0.06 0.05 0.04 0.06 0.06 0.04 0.05 0.05 0.05 0.04 0.04 0.06 0.05 0.07 0.05 0.04 0.04 0.04 0.03 0.01 0.02 0.02 0.02 0.02 0.01 0.01 0.01 0.01 0.01 0.01 0.01 0.01 0.01 0.01 0.02 0.03 0.03 0.03 0.02 0.02 0.02 0.03
0.05 0.07 0.07 0.04 0.04 0.04 0.04 0.04 0.04 0.05 0.04 0.05 0.06 0.06 0.06 0.05 0.05 0.05 0.05 0.05 0.03 0.02 0.02 0.01 0.01 0.00 0.00 0.01 0.01 0.01 0.01 0.00 0.00 0.00 0.01 0.02 0.04 0.03 0.03 0.02 0.03 0.03 0.03
0.04 0.08 0.11 0.10 0.05 0.04 0.05 0.05 0.04 0.05 0.05 0.05 0.05 0.06 0.05 0.04 0.05 0.05 0.04 0.04 0.03 0.02 0.01 0.01 0.01 0.00 0.00 0.00 0.01 0.01 0.01 0.01 0.01 0.01 0.01 0.02 0.04 0.04 0.03 0.03 0.04 0.04 0.04
0.04 0.07 0.11 0.17 0.14 0.08 0.06 0.06 0.06 0.05 0.05 0.05 0.05 0.05 0.04 0.04 0.04 0.04 0.04 0.05 0.04 0.02 0.01 0.01 0.00 0.00 0.00 0.00 0.00 0.00 0.00 0.01 0.01 0.01 0.01 0.01 0.03 0.05 0.04 0.04 0.05 0.05 0.05
0.03 0.04 0.08 0.12 0.12 0.10 0.08 0.07 0.05 0.05 0.05 0.05 0.05 0.05 0.06 0.06 0.04 0.04 0.04 0.05 0.05 0.03 0.02 0.01 0.00 0.00 0.00 0.00 0.00 0.00 0.00 0.00 0.00 0.00 0.01 0.01 0.02 0.04 0.04 0.04 0.05 0.05 0.06
0.03 0.05 0.07 0.08 0.08 0.09 0.09 0.07 0.05 0.03 0.04 0.03 0.03 0.04 0.05 0.06 0.05 0.05 0.05 0.05 0.04 0.04 0.03 0.02 0.01 0.00 0.00 0.00 0.00 0.00 0.00 0.00 0.00 0.00 0.00 0.01 0.01 0.02 0.03 0.04 0.04 0.05 0.05
0.03 0.04 0.07 0.08 0.08 0.07 0.08 0.07 0.04 0.03 0.04 0.04 0.04 0.03 0.04 0.05 0.05 0.05 0.05 0.05 0.04 0.05 0.05 0.02 0.01 0.00 0.00 0.00 0.00 0.00 0.00 0.00 0.00 0.00 0.00 0.00 0.01 0.01 0.03 0.04 0.04 0.05 0.05
0.03 0.04 0.05 0.07 0.08 0.07 0.06 0.06 0.05 0.05 0.04 0.04 0.04 0.04 0.04 0.05 0.06 0.06 0.05 0.06 0.04 0.04 0.05 0.04 0.02 0.01 0.01 0.00 0.00 0.00 0.00 0.00 0.00 0.00 0.00 0.01 0.01 0.01 0.02 0.03 0.04 0.03 0.03
0.05 0.04 0.05 0.06 0.07 0.06 0.05 0.04 0.04 0.04 0.05 0.05 0.05 0.05 0.06 0.06 0.05 0.06 0.07 0.08 0.07 0.05 0.04 0.03 0.03 0.02 0.01 0.01 0.00 0.00 0.00 0.00 0.00 0.00 0.00 0.01 0.01 0.01 0.01 0.02 0.02 0.02 0.02
0.05 0.05 0.04 0.06 0.07 0.07 0.05 0.04 0.04 0.03 0.03 0.04 0.05 0.05 0.05 0.05 0.05 0.05 0.06 0.08 0.09 0.07 0.04 0.03 0.02 0.02 0.01 0.01 0.01 0.01 0.01 0.00 0.00 0.00 0.00 0.00 0.01 0.01 0.01 0.01 0.01 0.01 0.01
0.05 0.05 0.04 0.05 0.06 0.07 0.06 0.04 0.03 0.02 0.02 0.02 0.04 0.05 0.05 0.05 0.05 0.05 0.05 0.08 0.09 0.07 0.05 0.04 0.03 0.02 0.01 0.01 0.01 0.01 0.01 0.01 0.01 0.01 0.01 0.00 0.00 0.01 0.01 0.01 0.00 0.00 0.00
0.05 0.04 0.04 0.05 0.06 0.06 0.07 0.05 0.04 0.04 0.03 0.04 0.04 0.05 0.05 0.05 0.05 0.04 0.04 0.06 0.09 0.10 0.07 0.05 0.03 0.03 0.03 0.02 0.01 0.02 0.02 0.02 0.02 0.02 0.01 0.01 0.01 0.01 0.01 0.00 0.00 0.00 0.00
0.04 0.04 0.03 0.04 0.06 0.07 0.08 0.07 0.05 0.04 0.04 0.03 0.03 0.04 0.06 0.07 0.06 0.05 0.04 0.03 0.06 0.09 0.10 0.08 0.05 0.04 0.03 0.02 0.02 0.02 0.02 0.02 0.01 0.02 0.02 0.01 0.01 0.01 0.01 0.00 0.00 0.00 0.00
0.03 0.03 0.02 0.03 0.04 0.07 0.09 0.10 0.07 0.05 0.04 0.03 0.04 0.05 0.06 0.09 0.09 0.08 0.07 0.05 0.04 0.06 0.09 0.10 0.09 0.06 0.04 0.03 0.02 0.01 0.01 0.02 0.01 0.01 0.01 0.01 0.01 0.01 0.01 0.01 0.00 0.00 0.00
0.03 0.02 0.02 0.03 0.03 0.03 0.06 0.10 0.09 0.05 0.04 0.04 0.05 0.05 0.06 0.08 0.10 0.11 0.10 0.08 0.05 0.05 0.07 0.09 0.10 0.10 0.08 0.05 0.03 0.02 0.01 0.02 0.02 0.02 0.01 0.01 0.01 0.01 0.01 0.01 0.01 0.00 0.00
MSLP
1012.60 1012.76 1013.03 1013.39 1013.82 1014.24 1014.63 1014.94 1015.17 1015.33 1015.45 1015.56 1015.70 1015.89 1016.12 1016.40 1016.68 1016.96 1017.20 1017.39 1017.52 1017.62 1017.69 1017.76 1017.85 1017.96 1018.10 1018.26 1018.44 1018.61 1018.77 1018.91 1019.01 1019.10 1019.15 1019.18 1019.19 1019.18 1019.15 1019.10 1019.04 1018.97 1018.90
1012.21 1012.46 1012.83 1013.30 1013.82 1014.34 1014.80 1015.17 1015.44 1015.62 1015.74 1015.85 1015.97 1016.15 1016.38 1016.65 1016.95 1017.26 1017.53 1017.77 1017.96 1018.11 1018.23 1018.34 1018.45 1018.57 1018.69 1018.82 1018.96 1019.09 1019.22 1019.34 1019.46 1019.58 1019.69 1019.78 1019.85 1019.89 1019.89 1019.86 1019.79 1019.69 1019.59
1011.80 1012.13 1012.60 1013.16 1013.78 1014.39 1014.92 1015.36 1015.68 1015.90 1016.05 1016.16 1016.29 1016.46 1016.67 1016.93 1017.23 1017.53 1017.83 1018.10 1018.35 1018.56 1018.75 1018.93 1019.08 1019.23 1019.35 1019.46 1019.55 1019.63 1019.72 1019.81 1019.92 1020.05 1020.20 1020.34 1020.48 1020.57 1020.62 1020.61 1020.54 1020.44 1020.31
1011.47 1011.88 1012.42 1013.06 1013.74 1014.41 1015.01 1015.51 1015.88 1016.15 1016.34 1016.49 1016.64 1016.81 1017.02 1017.26 1017.54 1017.84 1018.14 1018.43 1018.72 1019.00 1019.27 1019.51 1019.74 1019.92 1020.07 1020.17 1020.23 1020.27 1020.30 1020.34 1020.42 1020.55 1020.71 1020.90 1021.08 1021.23 1021.32 1021.34 1021.29 1021.18 1021.04
1011.31 1011.77 1012.36 1013.04 1013.76 1014.46 1015.09 1015.62 1016.04 1016.36 1016.61 1016.81 1017.00 1017.19 1017.41 1017.66 1017.92 1018.20 1018.50 1018.81 1019.13 1019.46 1019.79 1020.11 1020.40 1020.65 1020.83 1020.94 1020.99 1020.99 1020.98 1020.98 1021.02 1021.12 1021.28 1021.48 1021.69 1021.87 1022.00 1022.05 1022.02 1021.92 1021.79
1011.35 1011.85 1012.47 1013.16 1013.88 1014.56 1015.19 1015.73 1016.17 1016.54 1016.84 1017.10 1017.36 1017.61 1017.86 1018.13 1018.40 1018.68 1018.97 1019.28 1019.61 1019.97 1020.35 1020.72 1021.08 1021.38 1021.60 1021.74 1021.79 1021.78 1021.74 1021.71 1021.71 1021.78 1021.92 1022.11 1022.32 1022.52 1022.66 1022.74 1022.73 1022.65 1022.53
1011.58 1012.12 1012.75 1013.43 1014.10 1014.75 1015.33 1015.84 1016.29 1016.68 1017.03 1017.37 1017.70 1018.03 1018.36 1018.68 1018.98 1019.28 1019.58 1019.88 1020.22 1020.58 1020.97 1021.37 1021.76 1022.09 1022.35 1022.52 1022.59 1022.59 1022.55 1022.50 1022.48 1022.53 1022.64 1022.81 1023.01 1023.20 1023.35 1023.43 1023.44 1023.39 1023.28
1011.92 1012.51 1013.15 1013.80 1014.43 1015.01 1015.53 1016.00 1016.42 1016.82 1017.21 1017.62 1018.04 1018.47 1018.89 1019.29 1019.66 1020.00 1020.32 1020.63 1020.95 1021.30 1021.67 1022.05 1022.43 1022.77 1023.04 1023.23 1023.33 1023.36 1023.35 1023.32 1023.31 1023.34 1023.44 1023.58 1023.75 1023.92 1024.06 1024.14 1024.16 1024.12 1024.04
1012.29 1012.92 1013.58 1014.22 1014.80 1015.33 1015.79 1016.20 1016.59 1016.99 1017.41 1017.87 1018.37 1018.90 1019.42 1019.92 1020.38 1020.79 1021.15 1021.48 1021.80 1022.11 1022.44 1022.78 1023.11 1023.41 1023.67 1023.87 1024.00 1024.07 1024.10 1024.11 1024.14 1024.19 1024.28 1024.41 1024.55 1024.68 1024.79 1024.86 1024.88 1024.85 1024.79
1012.56 1013.26 1013.95 1014.60 1015.17 1015.67 1016.09 1016.46 1016.83 1017.21 1017.65 1018.15 1018.72 1019.32 1019.94 1020.54 1021.10 1021.60 1022.02 1022.39 1022.70 1022.99 1023.27 1023.53 1023.79 1024.03 1024.25 1024.44 1024.59 1024.70 1024.79 1024.87 1024.95 1025.04 1025.15 1025.26 1025.38 1025.48 1025.55 1025.59 1025.59 1025.56 1025.52
1012.69 1013.46 1014.20 1014.88 1015.48 1015.98 1016.41 1016.78 1017.14 1017.52 1017.97 1018.49 1019.08 1019.74 1020.43 1021.11 1021.76 1022.35 1022.85 1023.27 1023.61 1023.89 1024.12 1024.32 1024.49 1024.66 1024.83 1024.99 1025.14 1025.29 1025.44 1025.59 1025.74 1025.88 1026.01 1026.13 1026.22 1026.27 1026.30 1026.30 1026.28 1026.25 1026.21
1012.66 1013.49 1014.30 1015.04 1015.69 1016.25 1016.72 1017.13 1017.52 1017.92 1018.37 1018.89 1019.49 1020.15 1020.87 1021.60 1022.32 1022.98 1023.57 1024.06 1024.45 1024.75 1024.96 1025.12 1025.24 1025.34 1025.44 1025.57 1025.72 1025.90 1026.10 1026.32 1026.52 1026.72 1026.87 1026.99 1027.05 1027.06 1027.04 1026.99 1026.94 1026.89 1026.85
1012.49 1013.38 1014.24 1015.06 1015.79 1016.44 1017.01 1017.50 1017.95 1018.40 1018.86 1019.36 1019.93 1020.57 1021.27 1022.01 1022.75 1023.48 1024.14 1024.71 1025.17 1025.53 1025.77 1025.92 1026.02 1026.08 1026.15 1026.24 1026.39 1026.58 1026.81 1027.07 1027.33 1027.56 1027.74 1027.84 1027.88 1027.84 1027.76 1027.66 1027.56 1027.48 1027.44
1012.27 1013.18 1014.09 1014.97 1015.80 1016.56 1017.24 1017.85 1018.40 1018.91 1019.40 1019.90 1020.43 1021.01 1021.65 1022.35 1023.08 1023.83 1024.55 1025.20 1025.76 1026.20 1026.51 1026.72 1026.83 1026.90 1026.96 1027.04 1027.17 1027.37 1027.63 1027.91 1028.19 1028.44 1028.62 1028.71 1028.71 1028.62 1028.48 1028.32 1028.17 1028.06 1028.00
1012.08 1012.98 1013.90 1014.82 1015.73 1016.59 1017.41 1018.16 1018.83 1019.43 1019.96 1020.46 1020.95 1021.46 1022.03 1022.65 1023.34 1024.08 1024.83 1025.55 1026.20 1026.75 1027.17 1027.47 1027.65 1027.77 1027.85 1027.95 1028.09 1028.29 1028.54 1028.83 1029.12 1029.36 1029.53 1029.59 1029.55 1029.42 1029.22 1029.01 1028.80 1028.65 1028.57
1011.97 1012.85 1013.75 1014.67 1015.62 1016.57 1017.50 1018.38 1019.18 1019.89 1020.50 1021.02 1021.49 1021.94 1022.42 1022.97 1023.59 1024.28 1025.03 1025.80 1026.53 1027.18 1027.72 1028.14 1028.43 1028.64 1028.79 1028.92 1029.09 1029.29 1029.54 1029.81 1030.08 1030.31 1030.45 1030.49 1030.42 1030.25 1030.01 1029.75 1029.50 1029.31 1029.19
1011.98 1012.81 1013.67 1014.56 1015.52 1016.51 1017.52 1018.51 1019.43 1020.25 1020.95 1021.53 1022.01 1022.44 1022.86 1023.32 1023.87 1024.50 1025.22 1026.00 1026.77 1027.51 1028.16 1028.70 1029.12 1029.43 1029.67 1029.87 1030.07 1030.29 1030.53 1030.79 1031.04 1031.24 1031.37 1031.39 1031.30 1031.12 1030.86 1030.57 1030.28 1030.05 1029.90
1012.09 1012.88 1013.68 1014.53 1015.44 1016.44 1017.48 1018.54 1019.56 1020.49 1021.29 1021.95 1022.49 1022.93 1023.33 1023.75 1024.23 1024.79 1025.46 1026.20 1026.98 1027.76 1028.49 1029.12 1029.66 1030.08 1030.42 1030.70 1030.95 1031.19 1031.43 1031.68 1031.91 1032.10 1032.22 1032.24 1032.16 1031.99 1031.74 1031.45 1031.16 1030.90 1030.71
1012.25 1013.03 1013.78 1014.57 1015.43 1016.38 1017.41 1018.49 1019.57 1020.59 1021.49 1022.26 1022.89 1023.40 1023.83 1024.24 1024.67 1025.18 1025.77 1026.46 1027.20 1027.97 1028.72 1029.41 1030.03 1030.54 1030.96 1031.32 1031.62 1031.89 1032.15 1032.40 1032.62 1032.81 1032.94 1032.99 1032.96 1032.83 1032.63 1032.38 1032.10 1031.83 1031.61
1012.39 1013.19 1013.94 1014.69 1015.49 1016.38 1017.36 1018.41 1019.50 1020.57 1021.57 1022.45 1023.19 1023.80 1024.31 1024.76 1025.19 1025.66 1026.18 1026.78 1027.45 1028.16 1028.88 1029.58 1030.22 1030.79 1031.28 1031.69 1032.04 1032.35 1032.62 1032.87 1033.10 1033.31 1033.47 1033.57 1033.61 1033.57 1033.46 1033.27 1033.04 1032.79 1032.55
1012.44 1013.33 1014.12 1014.87 1015.63 1016.45 1017.35 1018.35 1019.40 1020.48 1021.54 1022.52 1023.38 1024.12 1024.75 1025.27 1025.74 1026.19 1026.66 1027.17 1027.74 1028.35 1029.00 1029.65 1030.28 1030.86 1031.38 1031.84 1032.22 1032.55 1032.84 1033.10 1033.34 1033.57 1033.78 1033.95 1034.08 1034.16 1034.16 1034.08 1033.93 1033.72 1033.49
1012.35 1013.38 1014.27 1015.07 1015.83 1016.60 1017.43 1018.33 1019.32 1020.37 1021.44 1022.48 1023.45 1024.33 1025.08 1025.72 1026.26 1026.73 1027.17 1027.61 1028.07 1028.57 1029.12 1029.68 1030.26 1030.82 1031.34 1031.81 1032.21 1032.55 1032.85 1033.11 1033.36 1033.61 1033.86 1034.11 1034.35 1034.54 1034.68 1034.73 1034.69 1034.56 1034.36
1012.09 1013.29 1014.34 1015.25 1016.06 1016.82 1017.59 1018.41 1019.30 1020.27 1021.31 1022.37 1023.42 1024.40 1025.28 1026.04 1026.68 1027.21 1027.64 1028.04 1028.42 1028.82 1029.25 1029.73 1030.23 1030.75 1031.24 1031.70 1032.10 1032.44 1032.73 1032.99 1033.23 1033.49 1033.77 1034.08 1034.41 1034.72 1034.99 1035.19 1035.28 1035.26 1035.12
1011.66 1013.05 1014.30 1015.37 1016.28 1017.08 1017.82 1018.56 1019.35 1020.22 1021.18 1022.21 1023.28 1024.33 1025.32 1026.20 1026.94 1027.55 1028.03 1028.41 1028.75 1029.08 1029.43 1029.82 1030.26 1030.72 1031.18 1031.62 1032.00 1032.33 1032.60 1032.83 1033.05 1033.29 1033.58 1033.93 1034.32 1034.73 1035.12 1035.46 1035.69 1035.79 1035.75
1011.09 1012.65 1014.10 1015.36 1016.43 1017.31 1018.07 1018.77 1019.46 1020.22 1021.08 1022.04 1023.08 1024.15 1025.20 1026.17 1027.02 1027.72 1028.26 1028.68 1029.02 1029.33 1029.64 1029.98 1030.37 1030.79 1031.22 1031.64 1032.00 1032.31 1032.54 1032.74 1032.92 1033.13 1033.39 1033.74 1034.16 1034.63 1035.12 1035.57 1035.93 1036.16 1036.24
1010.43 1012.11 1013.73 1015.19 1016.43 1017.45 1018.28 1018.97 1019.60 1020.26 1020.99 1021.85 1022.81 1023.86 1024.93 1025.97 1026.90 1027.69 1028.33 1028.82 1029.21 1029.54 1029.85 1030.18 1030.56 1030.96 1031.39 1031.79 1032.14 1032.42 1032.63 1032.78 1032.91 1033.06 1033.28 1033.59 1034.01 1034.50 1035.05 1035.59 1036.05 1036.40 1036.60
Thickness
5700 5699 5697 5697 5697 5696 5696 5696 5695 5695 5695 5696 5696 5696 5697 5697 5697 5697 5697 5697 5697 5698 5698 5699 5699 5700 5700 5700 5700 5700 5700 5700 5700 5701 5701 5701 5702 5702 5702 5703 5704 5703 5703
5698 5697 5694 5694 5694 5693 5692 5692 5691 5691 5691 5692 5692 5692 5693 5693 5693 5693 5693 5693 5693 5693 5694 5694 5694 5695 5695 5695 5695 5695 5695 5695 5695 5696 5697 5697 5697 5697 5698 5698 5699 5698 5698
5694 5693 5691 5691 5690 5689 5689 5688 5687 5687 5687 5688 5688 5688 5688 5688 5689 5689 5689 5689 5689 5689 5689 5689 5689 5690 5690 5690 5689 5690 5690 5690 5691 5692 5693 5694 5693 5692 5693 5693 5693 5693 5693
5689 5688 5687 5687 5686 5686 5685 5684 5683 5683 5683 5683 5683 5683 5684 5684 5684 5684 5684 5684 5684 5684 5684 5684 5683 5684 5684 5684 5684 5684 5684 5685 5686 5688 5690 5689 5688 5687 5687 5687 5688 5688 5688
5683 5683 5682 5682 5681 5681 5681 5680 5679 5678 5678 5679 5679 5678 5678 5678 5679 5679 5679 5679 5679 5679 5679 5679 5678 5678 5678 5678 5678 5678 5678 5680 5681 5683 5683 5683 5682 5681 5681 5682 5682 5682 5683
5678 5677 5677 5676 5676 5676 5675 5675 5674 5674 5674 5674 5673 5673 5673 5673 5673 5673 5673 5673 5673 5673 5673 5673 5673 5673 5673 5673 5672 5672 5673 5674 5677 5677 5677 5677 5676 5675 5675 5676 5676 5677 5677
5672 5671 5671 5670 5670 5670 5669 5669 5669 5668 5668 5668 5668 5668 5667 5667 5667 5667 5667 5667 5667 5667 5667 5667 5667 5667 5667 5666 5666 5666 5667 5668 5671 5671 5671 5670 5669 5669 5670 5670 5670 5671 5671
5664 5664 5664 5663 5663 5663 5663 5663 5663 5662 5662 5662 5662 5662 5661 5661 5661 5661 5661 5661 5661 5661 5661 5660 5660 5660 5660 5660 5659 5659 5661 5663 5664 5664 5664 5664 5663 5663 5664 5664 5664 5664 5665
5656 5657 5657 5656 5656 5656 5656 5656 5656 5656 5656 5656 5656 5655 5655 5654 5654 5655 5654 5654 5654 5654 5654 5653 5653 5653 5653 5652 5652 5653 5654 5656 5658 5657 5657 5657 5656 5657 5657 5658 5658 5658 5658
5648 5648 5649 5649 5649 5649 5648 5648 5648 5648 5648 5649 5649 5648 5648 5647 5647 5647 5647 5647 5646 5646 5646 5646 5645 5645 5645 5645 5645 5646 5647 5649 5650 5650 5649 5649 5650 5650 5651 5651 5651 5652 5652
5639 5640 5641 5641 5642 5641 5641 5640 5640 5640 5640 5641 5641 5641 5641 5640 5640 5639 5639 5639 5639 5639 5638 5638 5637 5637 5637 5637 5637 5639 5641 5642 5642 5642 5642 5642 5643 5644 5644 5645 5645 5645 5646
5630 5631 5632 5633 5634 5634 5634 5633 5633 5632 5632 5633 5633 5633 5633 5633 5632 5632 5631 5631 5631 5630 5630 5629 5629 5629 5630 5630 5630 5631 5633 5634 5635 5634 5634 5634 5636 5637 5637 5638 5638 5639 5639
5623 5623 5624 5625 5626 5626 5626 5625 5625 5625 5625 5625 5626 5625 5625 5625 5624 5624 5623 5623 5623 5622 5622 5621 5622 5623 5623 5623 5622 5623 5625 5626 5627 5627 5626 5627 5628 5630 5630 5631 5632 5632 5632
5615 5615 5616 5617 5617 5617 5617 5617 5617 5616 5616 5617 5617 5616 5617 5617 5617 5617 5616 5615 5615 5615 5614 5614 5614 5614 5615 5615 5615 5615 5616 5617 5618 5618 5618 5619 5620 5622 5623 5624 5624 5625 5625
5607 5607 5607 5608 5609 5609 5609 5608 5608 5608 5608 5608 5608 5608 5608 5609 5609 5609 5608 5607 5608 5607 5607 5607 5606 5606 5607 5607 5607 5607 5607 5608 5609 5610 5610 5610 5612 5613 5615 5616 5617 5617 5617
5596 5597 5598 5599 5600 5601 5601 5600 5599 5599 5599 5599 5599 5600 5600 5600 5601 5601 5600 5600 5600 5599 5599 5599 5598 5598 5598 5598 5598 5598 5598 5599 5600 5601 5602 5602 5603 5605 5606 5607 5608 5609 5609
5587 5588 5589 5590 5590 5591 5592 5591 5591 5590 5590 5590 5591 5591 5591 5592 5593 5592 5592 5592 5591 5591 5590 5590 5590 5590 5589 5589 5589 5589 5589 5590 5591 5592 5593 5594 5595 5595 5597 5598 5599 5600 5601
5578 5579 5579 5580 5581 5582 5582 5582 5581 5580 5580 5581 5581 5582 5583 5583 5584 5584 5584 5584 5583 5582 5582 5582 5582 5581 5581 5580 5580 5580 5580 5580 5582 5583 5584 5585 5585 5586 5587 5588 5590 5591 5591
5568 5569 5570 5570 5572 5572 5572 5572 5571 5571 5571 5572 5572 5572 5574 5574 5575 5576 5576 5575 5574 5574 5573 5573 5573 5573 5572 5571 5570 5570 5570 5571 5572 5573 5574 5575 5576 5577 5578 5579 5580 5581 5582
5557 5559 5560 5561 5561 5562 5562 5562 5562 5561 5561 5562 5562 5563 5564 5565 5566 5567 5567 5567 5566 5566 5565 5565 5564 5563 5563 5562 5561 5560 5560 5561 5562 5564 5565 5565 5566 5567 5568 5569 5570 5571 5572
5547 5549 5550 5551 5552 5552 5552 5553 5553 5553 5553 5553 5553 5553 5555 5556 5557 5558 5559 5559 5559 5558 5558 5557 5555 5554 5553 5552 5552 5551 5551 5552 5553 5554 5555 5556 5557 5557 5559 5559 5560 5561 5562
5539 5540 5541 5542 5543 5543 5543 5543 5545 5544 5544 5544 5544 5544 5545 5546 5548 5549 5550 5551 5550 5550 5549 5548 5547 5546 5544 5544 5547 5547 5547 5545 5544 5544 5545 5545 5546 5547 5548 5549 5550 5551 5552
5530 5531 5532 5532 5533 5533 5533 5535 5534 5535 5535 5534 5535 5535 5536 5536 5538 5539 5541 5542 5542 5542 5542 5541 5540 5539 5537 5535 5537 5540 5542 5544 5538 5535 5534 5535 5536 5537 5538 5539 5540 5541 5541
5521 5521 5522 5522 5522 5523 5524 5526 5527 5528 5528 5528 5527 5527 5527 5527 5528 5529 5532 5533 5533 5534 5533 5532 5531 5531 5530 5529 5527 5528 5530 5533 5532 5529 5526 5525 5525 5526 5528 5529 5529 5530 5531
5511 5511 5512 5513 5512 5513 5514 5516 5517 5519 5519 5518 5518 5519 5519 5518 5519 5520 5521 5523 5524 5524 5523 5523 5522 5522 5522 5522 5520 5519 5518 5518 5520 5522 5521 5517 5516 5515 5516 5518 5519 5520 5520
5501 5502 5502 5503 5503 5503 5504 5506 5508 5509 5509 5509 5509 5510 5510 5510 5510 5511 5512 5513 5514 5514 5514 5513 5513 5513 5513 5512 5511 5510 5510 5511 5512 5512 5513 5510 5508 5506 5505 5506 5508 5509 5509